STARLINK-3088, 49163

Orbit data source: Space-Track

STARLINK-3088, 49163 is a payload satellite owned by SpaceX/Seattle (US) in LEO that was launched on Tue, 14 Sep 2021 UTC via an FALCON 9 launch vehicle from the Air Force Western Test Range (AFWTR). Payload-class satellites include a variety of spacecraft equipped with specific instruments for various scientific and technological missions. These include communications satellites like Starlink; space stations such as the ISS; scientific satellites like the Hubble; Earth observation satellites from companies like Planet Labs, Umbra, and HawkEye 360; GPS; miniature CubeSats for education and research; and military/defense satellites.

Loading next visibility...
Identifier
49163, 2021-082AK
Orbit
LEO
Country
Flag of USUS
Related business
Manufacturer
SpaceX/Seattle
Mission
Operational Commercial Communications
Bus & Motor
STARLINK, Unknown motor
Mass
297 kg wet, ~275 kg dry
Launch date (UTC)
2021-09-14 (4 years ago)
Launch vehicle
FALCON 9
Launch site
Air Force Western Test Range (AFWTR)
Object type
Payload
Rocket body
Debris
Shape & HBR
Box + 1 Pan, 10.1 m
Radar Cross Section
13.562 m², Large (>1 m²)

Expand to show TLE details & history
Last TLE update: 7 hours ago

TLE from 7 hours ago
0 STARLINK-3088
1 49163U 21082AK  25310.74272964  .00001749  00000-0  15750-3 0  9990
2 49163  70.0032 224.8429 0002722 267.3489  92.7358 14.97522270229208
Epoch: 2025-11-06T17:49Z
TLE epoch observation values (Epoch: 2025-11-06T17:49:31.840Z)
Latitude
-0.00006°
Longitude
-88.73646°
Altitude
577.069 km
Speed
7.572 km/s
True Right ascension
14h 59m 22s
True Declination
0° 00' 00"
Sunlit
Object was in daylight at epoch
Visualization orbit readout
Latitude
Unknown
Longitude
Unknown
Altitude
Unknown
Speed
Unknown
Apparent Right ascension
Unknown
Apparent Declination
Unknown
Sunlit
N/A
Visualization observer readout
Local Sidereal Time
21:21:09
Azimuth
Unknown
Elevation
Unknown
Doppler factor
Unknown
Orbital elements
Apogee altitude
574.395 km
Perigee altitude
570.612 km
Semi-major axis
6,950.64 km
Eccentricity
0.00027
Inclination
70.0032°
RAAN
224.8429°
Arg. of periapsis
267.3489°
True anomaly
92.76696°
Mean anomaly
92.7358°
Eccentric anomaly
92.75138°
Mean motion
3.74547 °/min
Orbital period
96.12 mins
BSTAR
0.0001575
Loading maneuver chart data...
Computing Atmospheric mass density...

Documentation

Showing up to 5 results
|